This is the latest recevied weather packets stored in our database for station/object PA3GJX-13. If no packets are shown the sender has not sent any weather packets the latest 10 day(s).
| Time | Temp. | Humidity | Pressure | Rain* | Wind** | Luminosity | Snow |
|---|---|---|---|---|---|---|---|
| 1777385726 | 26.11° C | 24% | 1037.4 hPa | - | - | - | - |
| 1777384525 | 25.56° C | 24% | 1037.5 hPa | - | - | - | - |
| 1777383325 | 25° C | 26% | 1037.8 hPa | - | - | - | - |
| 1777382125 | 24.44° C | 26% | 1037.8 hPa | - | - | - | - |
| 1777380925 | 23.89° C | 27% | 1038 hPa | - | - | - | - |
| 1777379725 | 23.33° C | 27% | 1038.1 hPa | - | - | - | - |
| 1777378525 | 22.78° C | 28% | 1038.2 hPa | - | - | - | - |
| 1777377325 | 22.78° C | 29% | 1038.3 hPa | - | - | - | - |
| 1777376125 | 22.22° C | 29% | 1038.4 hPa | - | - | - | - |
| 1777374925 | 21.67° C | 30% | 1038.5 hPa | - | - | - | - |
| 1777373725 | 21.67° C | 30% | 1038.4 hPa | - | - | - | - |
| 1777372525 | 21.67° C | 31% | 1038.5 hPa | - | - | - | - |
| 1777371325 | 20.56° C | 32% | 1038.5 hPa | - | - | - | - |
| 1777370125 | 20.56° C | 32% | 1038.5 hPa | - | - | - | - |
| 1777368925 | 20° C | 33% | 1038.6 hPa | - | - | - | - |
| 1777367724 | 19.44° C | 33% | 1038.7 hPa | - | - | - | - |
| 1777366525 | 18.89° C | 34% | 1038.6 hPa | - | - | - | - |
| 1777365325 | 18.33° C | 34% | 1038.6 hPa | - | - | - | - |
| 1777364124 | 18.33° C | 34% | 1038.6 hPa | - | - | - | - |
| 1777362924 | 17.22° C | 35% | 1038.4 hPa | - | - | - | - |
| 1777361724 | 17.22° C | 36% | 1038.4 hPa | - | - | - | - |
| 1777360524 | 16.67° C | 36% | 1038.4 hPa | - | - | - | - |
| 1777359326 | 16.11° C | 37% | 1038.3 hPa | - | - | - | - |
| 1777358124 | 16.11° C | 37% | 1038.2 hPa | - | - | - | - |
| 1777356924 | 16.11° C | 38% | 1038.1 hPa | - | - | - | - |
* Rain since midnight (hover to see other rain measurements)
** Current wind speed in m/s (hover to see current wind gust speed)